Location: McFarlands Corners
(41.4117°N, 81.3382°W)
Time: 13:16:02
(UTC+00:00)

A-11 Canister half - Pass Details

Date: 22 February 2026
Orbit: 1513 x 1687 km, 47.2° (Epoch: 11 March)

Event Time Altitude Azimuth Distance (km) Brightness Sun altitude
Rises 07:26:28 0° 297° (WNW) 4,894 - -50.8°
Reaches altitude 10° 07:29:41 10° 295° (WNW) 3,884 - -50.4°
Maximum altitude 07:39:23 63° 217° (SW) 1,755 - -49.0°
Drops below altitude 10° 07:48:42 10° 139° (SE) 3,736 - -47.7°
Exits shadow 07:50:21 - 138° (SE) 4,254 11.3 -47.4°
Sets 07:51:44 0° 137° (SE) 4,697 11.6 -47.2°
